Location: Leipzig
(51.3397°N, 12.3731°E)
Time: 20:09:49
(UTC+01:00)

ISS - Pass Details

Date: 18 October 2025
Orbit: 414 x 421 km, 51.6° (Epoch: 07 November)

Event Time Altitude Azimuth Distance (km) Brightness Sun altitude
Exits shadow 07:05:17 - 235° (SW) 2,286 -0.5 -6.1°
Reaches altitude 10° 07:07:14 10° 229° (SW) 1,500 -1.3 -5.8°
Maximum altitude 07:10:28 45° 156° (SSE) 581 -2.7 -5.3°
Drops below altitude 10° 07:13:44 10° 82° (E) 1,510 0.6 -4.8°
Sets 07:15:53 0° 76° (ENE) 2,379 1.5 -4.4°
